This demonstration page uses our WeatherBlox Daily Observations layout. Learn more.

Left ArrowRight Arrow

38.20091, -84.87328

Hourly Observations for July 11, 2022

Temp ( °F °C ) Dew Point ( °F °C ) Humidity (%) Winds ( mph kmh ) Pressure ( in mb ) Visibility ( mi km ) Precip ( " mm )
12:53 am 00:53 Clear 70 21.1 67 19.4 90 90 Calm 29.95 1014 10 16 0.00 0.00
1:53 am 01:53 Clear 68 20 66 18.9 93 93 Calm 29.93 1014 10 16 0.00 0.00
2:53 am 02:53 Clear 68 20 65 18.3 90 90 Calm 29.91 1013 10 16 0.00 0.00
3:53 am 03:53 Clear 67 19.4 64 17.8 91 91 Calm 29.92 1013 9 14 0.00 0.00
4:53 am 04:53 Clear 65 18.3 63 17.2 93 93 Calm 29.92 1013 9 14 0.00 0.00
5:02 am 05:02 Mostly Clear with Mist and Fog 65 18.3 63 17.2 93 93 Calm 29.93 1013 2 3 0.00 0.00
5:10 am 05:10 Mostly Clear with Mist and Fog 66 18.9 63 17.2 90 90 Calm 29.92 1013 3 5 0.00 0.00
5:53 am 05:53 Clear 65 18.3 63 17.2 93 93 Calm 29.93 1014 9 14 0.00 0.00
6:53 am 06:53 Sunny 65 18.3 63 17.2 93 93 Calm 29.94 1014 10 16 0.00 0.00
7:53 am 07:53 Sunny 69 20.6 66 18.9 90 90 Calm 29.95 1014 10 16 0.00 0.00
8:53 am 08:53 Sunny 74 23.3 69 20.6 85 85 S 3 6 29.94 1014 10 16 0.00 0.00
9:53 am 09:53 Sunny 78 25.6 70 21.1 76 76 SW 6 9 29.94 1014 10 16 0.00 0.00
10:53 am 10:53 Sunny 83 28.3 70 21.1 65 65 Calm 29.95 1014 10 16 0.00 0.00
11:53 am 11:53 Mostly Sunny 84 28.9 68 20 59 59 Calm 29.96 1015 10 16 0.00 0.00
12:53 pm 12:53 Partly Cloudy 85 29.4 67 19.4 55 55 W 6 9 29.94 1014 10 16 0.00 0.00
1:53 pm 13:53 Mostly Sunny 87 30.6 65 18.3 48 48 VRB 7 11 29.92 1013 10 16 0.00 0.00
2:53 pm 14:53 Partly Cloudy 87 30.6 65 18.3 48 48 SSW 3 6 29.90 1013 10 16 0.00 0.00
3:53 pm 15:53 Sunny 88 31.1 65 18.3 46 46 S 5 7 29.88 1012 10 16 0.00 0.00
4:53 pm 16:53 Sunny 89 31.7 65 18.3 45 45 WSW 5 7 29.86 1011 10 16 0.00 0.00
5:53 pm 17:53 Sunny 88 31.1 65 18.3 46 46 WSW 9 15 29.84 1011 10 16 0.00 0.00
6:53 pm 18:53 Sunny 88 31.1 66 18.9 48 48 WSW 7 11 29.84 1011 10 16 0.00 0.00
7:53 pm 19:53 Sunny 86 30 69 20.6 57 57 WSW 3 6 29.83 1010 10 16 0.00 0.00
8:53 pm 20:53 Sunny 83 28.3 68 20 61 61 SSW 7 11 29.83 1010 10 16 0.00 0.00
9:53 pm 21:53 Clear 79 26.1 68 20 69 69 SSW 6 9 29.84 1010 10 16 0.00 0.00
10:53 pm 22:53 Clear 79 26.1 67 19.4 67 67 SW 7 11 29.85 1011 10 16 0.00 0.00
11:53 pm 23:53 Clear 76 24.4 66 18.9 72 72 SW 6 9 29.86 1011 10 16 0.00 0.00

Powered by AerisWeather